Location: Casteau
(50.5142°N, 4.0161°E)
Time: 03:14:05
(UTC+00:00)

OBJECT-B - Pass Details

Date: 18 September 2020
Orbit: 421 x 433 km, 97.0° (Epoch: 09 October)

Event Time Altitude Azimuth Distance (km) Brightness Sun altitude
Exits shadow 20:34:37 22° 257° (WSW) 984 3.0 -25.1°
Maximum altitude 20:34:56 22° 266° (W) 974 3.0 -25.1°
Drops below altitude 10° 20:37:34 10° 320° (NW) 1,522 4.6 -25.5°
Sets 20:39:53 0° 336° (NNW) 2,396 5.6 -25.7°
